Weather reports worldwide

Advertisment
Villanueva De Cordoba, Spain (8346): temperature & dewpoint: 27.06.2020 18:00:00 - 03.07.2020 18:00:00 (CEST)Villanueva De Cordoba, Spain (8346): wind speed & gusts: 27.06.2020 18:00:00 - 03.07.2020 18:00:00 (CEST)Villanueva De Cordoba, Spain (8346): wind direction: 27.06.2020 18:00:00 - 03.07.2020 18:00:00 (CEST)Villanueva De Cordoba, Spain (8346): reduced air pressure: 27.06.2020 18:00:00 - 03.07.2020 18:00:00 (CEST)Villanueva De Cordoba, Spain (8346): visibility: 27.06.2020 18:00:00 - 03.07.2020 18:00:00 (CEST)Villanueva De Cordoba, Spain (8346): sunshine duration: 27.06.2020 18:00:00 - 03.07.2020 18:00:00 (CEST)Villanueva De Cordoba, Spain (8346): precipitation: 27.06.2020 18:00:00 - 03.07.2020 18:00:00 (CEST)
Date & Time tt [°C] td [°C] ff [km/h] ff [kn] fx [km/h] fx [kn] dd ppp [hPa] vv [km] sd [min] rr [mm]
03.07.2020 18:00:00 - - - - - - - - - - -
03.07.2020 17:00:00 31,8 -6,4 8 4 30 16 NNE 1014,3 20 60 0,0
03.07.2020 16:00:00 31,6 -5,1 6 3 25 13 NW 1014,6 20 60 0,0
03.07.2020 15:00:00 31,2 -2,7 7 4 22 12 WNW 1015,0 20 60 0,0
03.07.2020 14:00:00 30,1 -2,5 6 4 24 13 NNW 1015,6 20 60 -
03.07.2020 13:00:00 28,6 0,2 8 5 21 11 W 1016,3 20 60 0,0
03.07.2020 12:00:00 27,1 -1,0 4 2 16 9 ENE 1016,6 20 60 0,0
03.07.2020 11:00:00 24,9 3,6 6 3 16 8 WSW 1016,9 20 59 0,0
03.07.2020 10:00:00 21,3 4,8 4 2 14 7 NW 1017,7 20 60 0,0
03.07.2020 09:00:00 17,5 6,1 8 4 18 10 NW 1018,6 20 60 0,0
03.07.2020 08:00:00 15,7 5,6 6 4 16 9 NNW 1018,9 20 0 -
03.07.2020 07:00:00 15,7 5,3 9 5 17 9 NNW 1018,7 20 0 0,0
03.07.2020 06:00:00 16,2 5,1 7 4 16 9 NNW 1018,2 20 0 0,0
03.07.2020 05:00:00 16,7 5,0 9 5 19 10 NW 1018,1 20 0 0,0
03.07.2020 04:00:00 17,6 5,1 11 6 22 12 NW 1018,0 20 0 0,0
03.07.2020 03:00:00 18,8 5,3 11 6 22 12 NW 1017,7 20 0 0,0
03.07.2020 02:00:00 20,3 5,1 11 6 23 12 NW 1017,5 20 0 -
03.07.2020 01:00:00 21,6 4,1 12 6 23 12 NW 1017,2 20 0 0,0
03.07.2020 00:00:00 23,1 3,6 9 5 27 15 NNW 1016,3 20 0 0,0
02.07.2020 23:00:00 24,8 6,5 11 6 29 16 NNW 1015,3 20 0 0,0
02.07.2020 22:00:00 26,8 3,9 14 8 31 17 NW 1014,0 20 32 0,0
02.07.2020 21:00:00 29,3 1,7 15 8 32 17 NW 1012,9 20 58 0,0
02.07.2020 20:00:00 30,4 1,7 17 9 37 20 NW 1012,4 20 60 -
02.07.2020 19:00:00 31,5 0,9 16 9 42 23 WNW 1012,1 20 60 0,0
02.07.2020 18:00:00 31,9 1,1 18 10 43 23 NW 1012,2 20 60 0,0
02.07.2020 17:00:00 33,0 0,9 22 12 48 26 W 1012,1 20 60 0,0
02.07.2020 16:00:00 32,0 0,2 14 8 38 20 WNW 1012,8 20 60 0,0
02.07.2020 15:00:00 32,3 0,4 19 11 38 20 WNW 1013,1 20 60 0,0
02.07.2020 14:00:00 31,3 1,5 13 7 40 22 W 1013,7 20 60 -
02.07.2020 13:00:00 29,9 3,0 12 7 34 19 WNW 1014,0 20 60 0,0
02.07.2020 12:00:00 29,2 3,2 13 7 27 14 WNW 1014,2 20 60 0,0
02.07.2020 11:00:00 27,4 6,2 8 4 19 10 W 1014,6 20 59 0,0
02.07.2020 10:00:00 25,0 10,9 5 3 17 9 WNW 1015,0 20 60 0,0
02.07.2020 09:00:00 21,9 11,0 7 4 16 9 NW 1015,5 20 60 0,0
02.07.2020 08:00:00 19,6 10,9 6 3 12 6 WNW 1015,6 20 0 -
02.07.2020 07:00:00 19,1 10,2 8 4 14 7 WNW 1015,6 20 0 0,0
02.07.2020 06:00:00 19,6 9,4 9 5 16 9 WNW 1015,0 20 0 0,0
02.07.2020 05:00:00 20,4 9,0 9 5 18 10 NW 1014,6 20 0 0,0
02.07.2020 04:00:00 21,2 8,5 9 5 18 10 NW 1014,4 20 0 0,0
02.07.2020 03:00:00 22,5 8,5 9 5 20 11 WNW 1014,2 20 0 0,0
02.07.2020 02:00:00 23,7 10,8 8 4 13 7 W 1013,9 20 0 -
02.07.2020 01:00:00 24,5 9,3 6 3 11 6 W 1013,7 20 0 0,0
02.07.2020 00:00:00 24,8 7,0 5 3 13 7 WSW 1013,7 20 0 0,0
01.07.2020 23:00:00 26,2 5,1 8 4 19 10 SSW 1012,9 20 0 0,0
01.07.2020 22:00:00 28,5 4,1 10 5 39 21 SSW 1011,6 20 16 0,0
01.07.2020 21:00:00 31,4 4,3 15 8 35 19 SSW 1010,5 20 59 0,0
01.07.2020 20:00:00 33,2 5,6 17 9 35 19 SSW 1009,7 20 60 -
01.07.2020 19:00:00 34,3 5,8 13 7 39 21 SSW 1009,3 20 60 0,0
01.07.2020 18:00:00 34,7 5,1 7 4 34 19 SW 1009,7 20 60 0,0
01.07.2020 17:00:00 34,7 5,1 13 7 36 19 SSW 1010,0 20 60 0,0
01.07.2020 16:00:00 34,4 5,0 16 9 30 16 SW 1010,4 20 60 0,0
01.07.2020 15:00:00 33,2 8,0 10 5 30 16 SSW 1010,9 20 60 0,0
01.07.2020 14:00:00 31,8 9,3 13 7 31 17 SSW 1011,8 20 60 -
01.07.2020 13:00:00 30,7 9,6 14 8 30 16 SSW 1012,3 20 60 0,0
01.07.2020 12:00:00 29,7 12,1 10 5 28 15 SSW 1012,5 20 60 0,0
01.07.2020 11:00:00 28,1 13,7 10 5 19 11 S 1012,5 20 59 0,0
01.07.2020 10:00:00 24,4 13,6 8 4 18 10 S 1013,5 20 60 0,0
01.07.2020 09:00:00 19,8 14,4 9 5 23 13 S 1014,8 20 60 0,0
01.07.2020 08:00:00 17,6 14,1 8 5 16 8 S 1014,8 20 0 -
01.07.2020 07:00:00 17,1 12,8 10 5 16 8 S 1014,7 20 0 0,0
01.07.2020 06:00:00 18,1 12,3 7 4 14 7 S 1013,9 20 0 0,0
01.07.2020 05:00:00 19,2 11,8 8 5 15 8 SSW 1013,5 20 0 0,0
01.07.2020 04:00:00 20,5 12,2 7 4 16 9 S 1013,1 20 0 0,0
01.07.2020 03:00:00 21,9 11,6 9 5 15 8 S 1012,7 20 0 0,0
01.07.2020 02:00:00 23,5 11,2 7 4 16 9 SW 1012,3 20 0 -
01.07.2020 01:00:00 25,3 11,1 9 5 21 11 SW 1011,8 20 0 0,0
01.07.2020 00:00:00 26,1 10,6 11 6 23 12 SW 1011,3 20 0 0,0
30.06.2020 23:00:00 27,0 9,3 11 6 27 15 SSW 1010,5 20 0 0,0
30.06.2020 22:00:00 29,2 7,1 11 6 30 16 SSW 1009,2 20 18 0,0
30.06.2020 21:00:00 32,7 5,3 14 8 37 20 SW 1007,8 20 58 0,0
30.06.2020 20:00:00 34,5 5,0 15 8 31 17 SW 1007,1 20 60 -
30.06.2020 19:00:00 35,2 4,6 18 10 38 21 SW 1007,0 20 60 0,0
30.06.2020 18:00:00 35,8 3,0 16 9 35 19 WSW 1007,4 20 60 0,0
30.06.2020 17:00:00 35,6 3,9 18 10 42 23 SSW 1007,7 20 60 0,0
30.06.2020 16:00:00 35,5 3,9 14 7 32 18 SW 1008,3 20 60 0,0
30.06.2020 15:00:00 35,1 2,5 15 8 37 20 S 1008,8 20 60 0,0
30.06.2020 14:00:00 34,4 3,0 15 8 34 18 S 1009,3 20 60 -
30.06.2020 13:00:00 33,5 4,3 13 7 26 14 SW 1009,7 20 60 0,0
30.06.2020 12:00:00 31,8 3,8 11 6 28 15 SSW 1010,1 20 60 0,0
30.06.2020 11:00:00 29,3 6,1 14 8 27 15 SSW 1010,8 20 60 0,0
30.06.2020 10:00:00 27,7 9,0 8 4 15 8 S 1011,0 20 60 0,0
30.06.2020 09:00:00 24,2 9,3 5 3 11 6 E 1011,7 20 58 0,0
30.06.2020 08:00:00 20,1 9,0 8 4 18 10 ENE 1012,7 20 0 -
30.06.2020 07:00:00 19,8 8,8 4 2 14 8 ESE 1012,9 20 0 0,0
30.06.2020 06:00:00 20,9 9,2 11 6 18 10 SSW 1012,3 20 0 0,0
30.06.2020 05:00:00 21,4 8,7 10 6 18 10 S 1012,4 20 0 0,0
30.06.2020 04:00:00 22,6 8,0 9 5 22 12 S 1012,1 20 0 0,0
30.06.2020 03:00:00 23,7 6,8 8 5 13 7 S 1012,0 20 0 0,0
30.06.2020 02:00:00 24,9 5,6 8 4 12 6 SSE 1012,0 20 0 -
30.06.2020 01:00:00 26,1 5,1 7 4 14 7 WSW 1011,9 20 0 0,0
30.06.2020 00:00:00 27,0 4,6 10 5 13 7 SSW 1011,7 20 0 0,0
29.06.2020 23:00:00 28,3 3,9 9 5 17 9 SW 1011,3 20 0 0,0
29.06.2020 22:00:00 30,9 3,0 11 6 26 14 SSW 1010,2 20 23 0,0
29.06.2020 21:00:00 34,2 2,9 14 7 27 15 S 1009,0 20 59 0,0
29.06.2020 20:00:00 36,0 3,2 12 6 26 14 S 1008,4 20 60 -
29.06.2020 19:00:00 36,2 4,5 13 7 26 14 S 1008,6 20 60 0,0
29.06.2020 18:00:00 36,8 3,9 11 6 33 18 S 1008,8 20 60 0,0
29.06.2020 17:00:00 37,0 3,9 13 7 26 14 S 1009,4 20 60 0,0
29.06.2020 16:00:00 36,6 4,8 10 5 29 16 S 1010,0 20 60 0,0
29.06.2020 15:00:00 36,5 6,7 9 5 26 14 S 1010,8 20 60 0,0
29.06.2020 14:00:00 35,2 8,1 13 7 26 14 SSW 1011,5 20 60 -
29.06.2020 13:00:00 34,0 7,1 6 4 23 12 S 1012,3 20 60 0,0
29.06.2020 12:00:00 33,4 7,4 7 4 16 9 SSW 1012,7 20 60 0,0
29.06.2020 11:00:00 31,4 7,7 3 1 11 6 W 1013,3 16 60 0,0
29.06.2020 10:00:00 29,6 8,7 3 2 9 5 E 1013,9 20 60 0,0
29.06.2020 09:00:00 24,5 9,3 6 3 10 5 NE 1015,1 20 60 0,0
29.06.2020 08:00:00 21,9 9,4 6 3 10 5 NNW 1015,5 20 0 -
29.06.2020 07:00:00 21,0 8,7 5 3 7 4 WNW 1015,8 20 0 0,0
29.06.2020 06:00:00 21,0 8,7 4 2 9 5 SW 1015,6 20 0 0,0
29.06.2020 05:00:00 22,5 7,8 4 2 10 5 SSW 1015,3 20 0 0,0
29.06.2020 04:00:00 23,4 7,0 6 3 13 7 NW 1015,0 20 0 0,0
29.06.2020 03:00:00 24,4 7,1 6 4 14 8 NNW 1015,1 20 0 0,0
29.06.2020 02:00:00 25,1 5,8 8 5 13 7 NW 1015,1 20 0 -
29.06.2020 01:00:00 25,3 6,5 8 4 13 7 NNW 1015,1 20 0 0,0
29.06.2020 00:00:00 25,6 7,3 7 4 15 8 N 1014,9 9 0 0,0
28.06.2020 23:00:00 27,0 7,4 8 4 19 10 NNW 1014,3 11 0 0,0
28.06.2020 22:00:00 29,1 8,3 9 5 30 16 NNW 1013,1 20 29 0,0
28.06.2020 21:00:00 32,4 7,3 11 6 23 12 NW 1012,0 20 58 0,0
28.06.2020 20:00:00 34,2 6,5 10 5 27 15 W 1011,3 20 59 -
28.06.2020 19:00:00 34,5 7,6 6 4 33 18 WNW 1011,3 20 60 0,0
28.06.2020 18:00:00 34,6 6,8 11 6 26 14 NW 1011,6 20 40 0,0
28.06.2020 17:00:00 34,3 7,4 10 6 25 14 N 1012,0 20 54 0,0
28.06.2020 16:00:00 34,7 7,7 14 7 29 16 WSW 1012,3 20 60 0,0
28.06.2020 15:00:00 33,8 7,7 11 6 22 12 SSW 1013,0 20 60 0,0
28.06.2020 14:00:00 32,3 7,8 9 5 24 13 ENE 1013,8 20 60 -
28.06.2020 13:00:00 31,8 8,8 5 3 26 14 W 1014,5 20 60 0,0
28.06.2020 12:00:00 30,2 9,2 6 3 21 11 NNW 1015,0 20 60 0,0
28.06.2020 11:00:00 28,6 9,8 4 2 17 9 WNW 1015,5 20 60 0,0
28.06.2020 10:00:00 25,8 11,2 4 2 13 7 N 1016,1 20 60 0,0
28.06.2020 09:00:00 22,1 12,1 5 3 13 7 N 1016,8 20 60 0,0
28.06.2020 08:00:00 19,6 12,1 8 5 16 9 NNW 1017,2 20 1 -
28.06.2020 07:00:00 18,9 11,7 10 5 19 10 NNW 1017,1 20 0 0,0
28.06.2020 06:00:00 19,1 11,7 9 5 18 10 NW 1017,1 20 0 0,0
28.06.2020 05:00:00 19,6 11,1 10 6 21 11 NW 1017,0 20 0 0,0
28.06.2020 04:00:00 20,4 9,3 8 5 19 10 NW 1016,8 20 0 0,0
28.06.2020 03:00:00 21,7 9,3 9 5 18 10 NNW 1016,6 20 0 0,0
28.06.2020 02:00:00 22,6 8,0 8 4 15 8 NNW 1016,2 20 0 -
28.06.2020 01:00:00 23,0 7,6 8 4 13 7 NNW 1016,2 20 0 0,0
28.06.2020 00:00:00 23,0 7,1 7 4 15 8 N 1016,2 20 0 0,0
27.06.2020 23:00:00 24,4 7,1 8 4 18 10 N 1015,3 20 0 0,0
27.06.2020 22:00:00 26,6 7,6 8 4 24 13 NNW 1013,9 20 34 0,0
27.06.2020 21:00:00 29,2 7,7 12 6 27 15 NW 1012,9 20 59 0,0
27.06.2020 20:00:00 30,7 7,8 10 5 36 19 WNW 1012,5 20 60 -
27.06.2020 19:00:00 31,0 7,4 8 5 31 17 NNW 1012,3 20 60 0,0
27.06.2020 18:00:00 31,2 6,2 9 5 28 15 NW 1012,9 20 60 0,0

tt = temperature
td = dewpoint
ff = wind speed
fx = gusts
dd = wind direction
ppp = reduced air pressure
vv = visibility
sd = sunshine duration
rr = precipitation

Next stations